{"data":{"norad_id":56803,"intl_designator":"2023-078AN","name":"STARLINK-6029","alt_names":[],"object_type":"PAYLOAD","status":"ACTIVE","operator":null,"country":"US","launch_date":"2023-05-31","launch_site_code":"AFWTR","launch_vehicle":null,"mission":null,"orbit_class":"UNKNOWN","rcs_meters":null,"size_class":null,"mass_kg":null,"dimensions":null,"purposes":["comms"],"wikipedia_slug":null,"has_3d_model":false,"image_url":null,"decayed_at":null,"tle_current":{"epoch":"2026-09-20T13:56:06.425088Z","epoch_age_seconds":110656,"freshness":"FRESH","line1":"1 56803U 23078AN  26263.58062992 -.00000136  00000+0 -36258-5 0  9992","line2":"2 56803  69.9995 213.0373 0003361 270.1872  89.8902 14.98331515181871","mean_motion":14.98331515,"eccentricity":0.0003361,"inclination_deg":69.9995,"raan_deg":213.0373,"arg_perigee_deg":270.1872,"mean_anomaly_deg":89.8902,"bstar":-3.6258e-6,"rev_number":18187,"period_min":96.106901949533,"perigee_km":569.71524767982,"apogee_km":574.38716419185,"semimajor_km":6950.1882059358,"source":"CELESTRAK","updated_at":"2026-09-21T09:00:33.510722Z"}}}